| time (UTC) | temp C | wind direction | speed KPH | gust KPH | rain 1hr cm | rain 24hr cm | rain mn cm | humidity % | barometer mb |
| 20260508000903 | 8 | 57 | 0.0 | 1.6 | 0.00 | 0.00 | 0.00 | 85 | 1009.8 |
| 20260508000003 | 8 | 0 | 0.0 | 0.0 | 0.00 | 0.00 | 0.00 | 84 | 1009.8 |
| 20260507235403 | 8 | 0 | 0.0 | 0.0 | 0.00 | 0.00 | 0.00 | 83 | 1009.7 |
| 20260507234524 | 8 | 34 | 0.0 | 1.6 | 0.00 | 0.00 | 0.00 | 82 | 1009.8 |
| 20260507233603 | 8 | 158 | 0.0 | 1.6 | 0.00 | 0.00 | 0.00 | 81 | 1009.7 |
| 20260507232703 | 9 | 165 | 0.0 | 4.8 | 0.00 | 0.00 | 0.00 | 80 | 1009.6 |
| 20260507231803 | 9 | 174 | 0.0 | 4.8 | 0.00 | 0.00 | 0.00 | 79 | 1009.5 |
| 20260507230903 | 10 | 178 | 0.0 | 3.2 | 0.00 | 0.00 | 0.00 | 78 | 1009.5 |
| 20260507230003 | 10 | 163 | 0.0 | 3.2 | 0.00 | 0.00 | 0.00 | 78 | 1009.4 |
| 20260507225403 | 10 | 170 | 0.0 | 4.8 | 0.00 | 0.00 | 0.00 | 77 | 1009.4 |
| 20260507224504 | 10 | 170 | 1.6 | 6.4 | 0.00 | 0.00 | 0.00 | 76 | 1009.4 |
| 20260507223624 | 10 | 181 | 1.6 | 6.4 | 0.00 | 0.00 | 0.00 | 77 | 1009.3 |
| 20260507222703 | 10 | 144 | 0.0 | 1.6 | 0.00 | 0.00 | 0.00 | 78 | 1009.3 |
| 20260507221824 | 10 | 210 | 0.0 | 1.6 | 0.00 | 0.00 | 0.00 | 77 | 1009.6 |
| 20260507220903 | 10 | 168 | 0.0 | 3.2 | 0.00 | 0.00 | 0.00 | 76 | 1009.1 |
| 20260507220003 | 10 | 189 | 0.0 | 1.6 | 0.00 | 0.00 | 0.00 | 76 | 1009.2 |
| 20260507215403 | 10 | 171 | 1.6 | 9.7 | 0.00 | 0.00 | 0.00 | 75 | 1009.3 |
| 20260507214503 | 11 | 190 | 1.6 | 9.7 | 0.00 | 0.00 | 0.00 | 74 | 1009.3 |
| 20260507213624 | 11 | 214 | 1.6 | 4.8 | 0.00 | 0.00 | 0.00 | 74 | 1009.2 |
| 20260507212724 | 10 | 211 | 1.6 | 4.8 | 0.00 | 0.00 | 0.00 | 75 | 1009.0 |
| 20260507211803 | 10 | 220 | 1.6 | 4.8 | 0.00 | 0.00 | 0.00 | 76 | 1009.0 |
| 20260507210903 | 10 | 200 | 0.0 | 4.8 | 0.00 | 0.00 | 0.00 | 76 | 1009.0 |
| 20260507210003 | 10 | 243 | 0.0 | 4.8 | 0.00 | 0.00 | 0.00 | 76 | 1009.0 |
| 20260507205403 | 10 | 195 | 0.0 | 3.2 | 0.00 | 0.00 | 0.00 | 76 | 1008.8 |
| 20260507204524 | 11 | 200 | 0.0 | 1.6 | 0.00 | 0.00 | 0.00 | 75 | 1008.7 |
| 20260507203603 | 11 | 176 | 0.0 | 3.2 | 0.00 | 0.00 | 0.00 | 75 | 1008.6 |
| 20260507202703 | 10 | 176 | 0.0 | 3.2 | 0.00 | 0.00 | 0.00 | 76 | 1008.5 |
| 20260507201803 | 11 | 181 | 0.0 | 1.6 | 0.00 | 0.00 | 0.00 | 75 | 1008.3 |
| 20260507200903 | 11 | 193 | 0.0 | 1.6 | 0.00 | 0.00 | 0.00 | 74 | 1008.4 |
| 20260507200003 | 11 | 186 | 0.0 | 3.2 | 0.00 | 0.00 | 0.00 | 74 | 1008.5 |
| 20260507195403 | 11 | 199 | 1.6 | 3.2 | 0.00 | 0.00 | 0.00 | 74 | 1008.3 |
| 20260507194503 | 11 | 200 | 1.6 | 4.8 | 0.00 | 0.00 | 0.00 | 73 | 1008.1 |
| 20260507193603 | 11 | 187 | 0.0 | 3.2 | 0.00 | 0.00 | 0.00 | 72 | 1008.0 |
| 20260507192703 | 12 | 183 | 0.0 | 1.6 | 0.00 | 0.00 | 0.00 | 72 | 1008.2 |
| 20260507191824 | 12 | 182 | 0.0 | 1.6 | 0.00 | 0.00 | 0.00 | 71 | 1008.2 |
| 20260507190903 | 12 | 184 | 1.6 | 6.4 | 0.00 | 0.00 | 0.00 | 71 | 1008.1 |
| 20260507190004 | 12 | 194 | 1.6 | 4.8 | 0.00 | 0.00 | 0.00 | 70 | 1007.9 |
| 20260507185424 | 12 | 194 | 1.6 | 3.2 | 0.00 | 0.00 | 0.00 | 70 | 1008.0 |
| 20260507184503 | 12 | 183 | 1.6 | 6.4 | 0.00 | 0.00 | 0.00 | 70 | 1007.7 |
| 20260507183603 | 12 | 192 | 1.6 | 4.8 | 0.00 | 0.00 | 0.00 | 69 | 1007.7 |
| 20260507182703 | 13 | 194 | 1.6 | 6.4 | 0.00 | 0.00 | 0.00 | 68 | 1007.5 |
| 20260507181803 | 13 | 210 | 1.6 | 3.2 | 0.00 | 0.00 | 0.00 | 67 | 1007.6 |
| 20260507180903 | 13 | 203 | 0.0 | 1.6 | 0.00 | 0.00 | 0.00 | 68 | 1007.5 |
| 20260507180003 | 13 | 200 | 1.6 | 4.8 | 0.00 | 0.00 | 0.00 | 68 | 1007.5 |
| 20260507175403 | 13 | 205 | 1.6 | 3.2 | 0.00 | 0.00 | 0.00 | 68 | 1007.5 |
| 20260507174503 | 13 | 204 | 3.2 | 12.9 | 0.00 | 0.00 | 0.00 | 71 | 1007.5 |
| 20260507173603 | 13 | 186 | 1.6 | 4.8 | 0.00 | 0.00 | 0.00 | 71 | 1007.5 |
| 20260507172703 | 13 | 202 | 1.6 | 4.8 | 0.00 | 0.00 | 0.00 | 71 | 1007.3 |
| 20260507171803 | 13 | 197 | 1.6 | 6.4 | 0.00 | 0.00 | 0.00 | 71 | 1007.3 |
| 20260507170903 | 13 | 183 | 1.6 | 4.8 | 0.00 | 0.00 | 0.00 | 73 | 1007.5 |
| 20260507170003 | 13 | 223 | 1.6 | 4.8 | 0.00 | 0.00 | 0.00 | 73 | 1007.6 |
| 20260507165403 | 12 | 226 | 3.2 | 12.9 | 0.00 | 0.00 | 0.00 | 73 | 1007.6 |
| 20260507164503 | 12 | 201 | 3.2 | 6.4 | 0.00 | 0.00 | 0.00 | 71 | 1007.5 |
| 20260507163603 | 12 | 204 | 3.2 | 11.3 | 0.00 | 0.00 | 0.00 | 71 | 1007.6 |
| 20260507162724 | 12 | 210 | 4.8 | 12.9 | 0.00 | 0.00 | 0.00 | 78 | 1007.7 |
| 20260507161803 | 12 | 229 | 3.2 | 11.3 | 0.00 | 0.00 | 0.00 | 79 | 1007.8 |
| 20260507160903 | 12 | 209 | 3.2 | 14.5 | 0.00 | 0.00 | 0.00 | 79 | 1007.7 |
| 20260507160003 | 12 | 210 | 3.2 | 11.3 | 0.00 | 0.00 | 0.00 | 78 | 1007.9 |
| 20260507155403 | 13 | 219 | 4.8 | 11.3 | 0.00 | 0.00 | 0.00 | 76 | 1007.8 |
| 20260507154503 | 13 | 209 | 4.8 | 14.5 | 0.00 | 0.00 | 0.00 | 76 | 1007.7 |
| 20260507153624 | 13 | 197 | 4.8 | 14.5 | 0.00 | 0.00 | 0.00 | 75 | 1007.8 |
| 20260507152703 | 13 | 199 | 4.8 | 16.1 | 0.00 | 0.00 | 0.00 | 76 | 1007.8 |
| 20260507151803 | 13 | 189 | 3.2 | 11.3 | 0.00 | 0.00 | 0.00 | 75 | 1007.9 |
| 20260507150924 | 13 | 214 | 3.2 | 14.5 | 0.00 | 0.00 | 0.00 | 75 | 1007.8 |
| 20260507150024 | 13 | 197 | 3.2 | 14.5 | 0.00 | 0.00 | 0.00 | 73 | 1007.7 |
| 20260507145403 | 13 | 205 | 3.2 | 9.7 | 0.00 | 0.00 | 0.00 | 72 | 1008.0 |
| 20260507144503 | 13 | 202 | 3.2 | 9.7 | 0.00 | 0.00 | 0.00 | 71 | 1008.0 |
| 20260507143624 | 13 | 214 | 1.6 | 4.8 | 0.00 | 0.00 | 0.00 | 72 | 1008.2 |
| 20260507142703 | 13 | 212 | 3.2 | 9.7 | 0.00 | 0.00 | 0.00 | 73 | 1008.1 |
| 20260507141803 | 13 | 190 | 1.6 | 11.3 | 0.00 | 0.00 | 0.00 | 71 | 1008.2 |
| 20260507140903 | 13 | 193 | 3.2 | 9.7 | 0.00 | 0.00 | 0.00 | 69 | 1008.2 |
| 20260507140003 | 13 | 187 | 3.2 | 6.4 | 0.00 | 0.00 | 0.00 | 67 | 1008.3 |
| 20260507135403 | 13 | 213 | 3.2 | 11.3 | 0.00 | 0.00 | 0.00 | 66 | 1008.3 |
| 20260507134503 | 13 | 180 | 3.2 | 11.3 | 0.00 | 0.00 | 0.00 | 67 | 1008.3 |
| 20260507133603 | 13 | 189 | 3.2 | 9.7 | 0.00 | 0.00 | 0.00 | 73 | 1008.4 |
| 20260507132724 | 13 | 191 | 3.2 | 9.7 | 0.00 | 0.00 | 0.00 | 72 | 1008.2 |
| 20260507131824 | 13 | 234 | 3.2 | 9.7 | 0.00 | 0.00 | 0.00 | 74 | 1008.3 |
| 20260507130903 | 13 | 198 | 4.8 | 11.3 | 0.00 | 0.00 | 0.00 | 74 | 1008.3 |
| 20260507130003 | 14 | 225 | 3.2 | 12.9 | 0.00 | 0.00 | 0.00 | 70 | 1008.4 |
| 20260507125403 | 13 | 204 | 3.2 | 12.9 | 0.00 | 0.00 | 0.00 | 69 | 1008.4 |
| 20260507124503 | 14 | 202 | 4.8 | 11.3 | 0.00 | 0.00 | 0.00 | 67 | 1008.6 |
| 20260507123603 | 15 | 229 | 4.8 | 11.3 | 0.00 | 0.00 | 0.00 | 66 | 1008.4 |
| 20260507122705 | 15 | 203 | 4.8 | 11.3 | 0.00 | 0.00 | 0.00 | 62 | 1008.4 |
| 20260507121803 | 15 | 219 | 4.8 | 11.3 | 0.00 | 0.00 | 0.00 | 63 | 1008.5 |
| 20260507120903 | 15 | 214 | 4.8 | 11.3 | 0.00 | 0.00 | 0.00 | 63 | 1008.4 |
| 20260507120004 | 15 | 220 | 4.8 | 11.3 | 0.00 | 0.00 | 0.00 | 64 | 1008.6 |
| 20260507115424 | 15 | 240 | 4.8 | 11.3 | 0.00 | 0.00 | 0.00 | 65 | 1008.6 |
| 20260507114503 | 15 | 225 | 4.8 | 12.9 | 0.00 | 0.00 | 0.00 | 67 | 1008.5 |
| 20260507113603 | 14 | 235 | 4.8 | 12.9 | 0.00 | 0.00 | 0.00 | 68 | 1008.6 |
| 20260507112703 | 15 | 215 | 4.8 | 11.3 | 0.00 | 0.00 | 0.00 | 65 | 1008.6 |
| 20260507111803 | 15 | 206 | 4.8 | 11.3 | 0.00 | 0.00 | 0.00 | 64 | 1008.6 |
| 20260507110903 | 15 | 226 | 4.8 | 11.3 | 0.00 | 0.00 | 0.00 | 64 | 1008.6 |
| 20260507110003 | 16 | 219 | 4.8 | 11.3 | 0.00 | 0.00 | 0.00 | 60 | 1008.7 |
| 20260507105403 | 16 | 216 | 3.2 | 11.3 | 0.00 | 0.00 | 0.00 | 56 | 1008.5 |
| 20260507104504 | 16 | 209 | 3.2 | 11.3 | 0.00 | 0.00 | 0.00 | 54 | 1008.6 |
| 20260507103603 | 15 | 228 | 3.2 | 6.4 | 0.00 | 0.00 | 0.00 | 51 | 1008.7 |
| 20260507102703 | 14 | 216 | 3.2 | 6.4 | 0.00 | 0.00 | 0.00 | 52 | 1009.0 |
| 20260507101803 | 15 | 208 | 3.2 | 4.8 | 0.00 | 0.00 | 0.00 | 50 | 1008.8 |
| 20260507090903 | 14 | 216 | 1.6 | 11.3 | 0.00 | 0.00 | 0.00 | 57 | 1009.2 |
| 20260507090003 | 14 | 195 | 1.6 | 6.4 | 0.00 | 0.00 | 0.00 | 58 | 1009.2 |
| 20260507085423 | 13 | 213 | 1.6 | 6.4 | 0.00 | 0.00 | 0.00 | 60 | 1009.1 |
| 20260507084503 | 13 | 174 | 1.6 | 4.8 | 0.00 | 0.00 | 0.00 | 64 | 1009.1 |
| 20260507083602 | 12 | 199 | 1.6 | 6.4 | 0.00 | 0.00 | 0.00 | 65 | 1009.2 |
| 20260507082703 | 12 | 193 | 1.6 | 3.2 | 0.00 | 0.00 | 0.00 | 66 | 1009.3 |
| 20260507081802 | 12 | 181 | 1.6 | 6.4 | 0.00 | 0.00 | 0.00 | 66 | 1009.1 |
| 20260507080923 | 12 | 220 | 1.6 | 6.4 | 0.00 | 0.00 | 0.00 | 64 | 1009.2 |
| 20260507080003 | 13 | 178 | 1.6 | 4.8 | 0.00 | 0.00 | 0.00 | 60 | 1009.1 |
| 20260507075403 | 13 | 198 | 3.2 | 9.7 | 0.00 | 0.00 | 0.00 | 61 | 1009.1 |
| 20260507074503 | 13 | 230 | 1.6 | 6.4 | 0.00 | 0.00 | 0.00 | 62 | 1009.0 |
| 20260507073602 | 13 | 192 | 1.6 | 4.8 | 0.00 | 0.00 | 0.00 | 63 | 1009.1 |
| 20260507072702 | 12 | 190 | 1.6 | 4.8 | 0.00 | 0.00 | 0.00 | 64 | 1008.8 |
| 20260507071824 | 13 | 206 | 1.6 | 3.2 | 0.00 | 0.00 | 0.00 | 63 | 1008.7 |
| 20260507070903 | 12 | 178 | 1.6 | 4.8 | 0.00 | 0.00 | 0.00 | 67 | 1008.8 |
| 20260507070004 | 12 | 206 | 1.6 | 6.4 | 0.00 | 0.00 | 0.00 | 69 | 1008.7 |
| 20260507065403 | 12 | 212 | 1.6 | 6.4 | 0.00 | 0.00 | 0.00 | 70 | 1009.0 |
| 20260507064503 | 12 | 219 | 1.6 | 11.3 | 0.00 | 0.00 | 0.00 | 69 | 1008.7 |
| 20260507063603 | 12 | 193 | 1.6 | 6.4 | 0.00 | 0.00 | 0.00 | 70 | 1008.8 |
| 20260507062702 | 12 | 188 | 0.0 | 4.8 | 0.00 | 0.00 | 0.00 | 71 | 1009.0 |
| 20260507061803 | 11 | 191 | 0.0 | 3.2 | 0.00 | 0.00 | 0.00 | 75 | 1009.0 |
| 20260507060903 | 10 | 0 | 0.0 | 0.0 | 0.00 | 0.00 | 0.00 | 80 | 1008.9 |
| 20260507060003 | 8 | 189 | 0.0 | 1.6 | 0.00 | 0.00 | 0.00 | 83 | 1008.9 |
| 20260507055403 | 8 | 189 | 0.0 | 1.6 | 0.00 | 0.00 | 0.00 | 83 | 1008.9 |
| 20260507054524 | 8 | 0 | 0.0 | 0.0 | 0.00 | 0.00 | 0.00 | 83 | 1008.9 |
| 20260507053603 | 8 | 0 | 0.0 | 0.0 | 0.00 | 0.00 | 0.00 | 84 | 1009.0 |
| 20260507052703 | 8 | 186 | 0.0 | 1.6 | 0.00 | 0.00 | 0.00 | 84 | 1008.8 |
| 20260507051803 | 8 | 0 | 0.0 | 0.0 | 0.00 | 0.00 | 0.00 | 84 | 1008.9 |
| 20260507050903 | 8 | 0 | 0.0 | 0.0 | 0.00 | 0.00 | 0.00 | 84 | 1008.8 |
| 20260507050024 | 8 | 0 | 0.0 | 0.0 | 0.00 | 0.00 | 0.00 | 83 | 1008.7 |
| 20260507045403 | 8 | 0 | 0.0 | 0.0 | 0.00 | 0.00 | 0.00 | 83 | 1008.9 |
| 20260507044503 | 8 | 0 | 0.0 | 0.0 | 0.00 | 0.00 | 0.00 | 83 | 1008.8 |
| 20260507043603 | 8 | 0 | 0.0 | 0.0 | 0.00 | 0.00 | 0.00 | 84 | 1008.6 |
| 20260507042703 | 8 | 156 | 0.0 | 1.6 | 0.00 | 0.00 | 0.00 | 84 | 1008.8 |
| 20260507041803 | 8 | 0 | 0.0 | 0.0 | 0.00 | 0.00 | 0.00 | 84 | 1008.9 |
| 20260507040903 | 8 | 0 | 0.0 | 0.0 | 0.00 | 0.00 | 0.00 | 84 | 1008.8 |
| 20260507040003 | 8 | 0 | 0.0 | 0.0 | 0.00 | 0.00 | 0.00 | 84 | 1008.7 |
| 20260507035403 | 8 | 147 | 0.0 | 1.6 | 0.00 | 0.00 | 0.00 | 84 | 1008.9 |
| 20260507034503 | 8 | 149 | 0.0 | 1.6 | 0.00 | 0.00 | 0.00 | 84 | 1008.9 |
| 20260507033603 | 8 | 160 | 0.0 | 1.6 | 0.00 | 0.00 | 0.00 | 84 | 1009.0 |
| 20260507032703 | 8 | 172 | 0.0 | 1.6 | 0.00 | 0.00 | 0.00 | 84 | 1009.0 |
| 20260507031803 | 8 | 169 | 0.0 | 1.6 | 0.00 | 0.00 | 0.00 | 83 | 1008.8 |
| 20260507030903 | 8 | 166 | 0.0 | 3.2 | 0.00 | 0.00 | 0.00 | 83 | 1008.9 |
| 20260507030024 | 8 | 163 | 0.0 | 1.6 | 0.00 | 0.00 | 0.00 | 81 | 1008.9 |
| 20260507025403 | 9 | 161 | 0.0 | 1.6 | 0.00 | 0.00 | 0.00 | 79 | 1008.9 |
| 20260507024524 | 9 | 0 | 0.0 | 0.0 | 0.00 | 0.00 | 0.00 | 76 | 1008.8 |
| 20260507023603 | 9 | 156 | 0.0 | 1.6 | 0.00 | 0.00 | 0.00 | 76 | 1009.1 |
| 20260507022703 | 9 | 0 | 0.0 | 0.0 | 0.00 | 0.00 | 0.00 | 75 | 1008.7 |
| 20260507021803 | 9 | 56 | 0.0 | 1.6 | 0.00 | 0.00 | 0.00 | 75 | 1008.8 |
| 20260507020903 | 9 | 101 | 0.0 | 1.6 | 0.00 | 0.00 | 0.00 | 77 | 1008.8 |
| 20260507020024 | 9 | 177 | 0.0 | 1.6 | 0.00 | 0.00 | 0.00 | 79 | 1008.9 |
| 20260507015424 | 9 | 188 | 0.0 | 1.6 | 0.00 | 0.00 | 0.00 | 80 | 1008.8 |
| 20260507014503 | 9 | 191 | 0.0 | 1.6 | 0.00 | 0.00 | 0.00 | 81 | 1009.0 |
| 20260507013624 | 9 | 180 | 0.0 | 1.6 | 0.00 | 0.00 | 0.00 | 82 | 1008.9 |
| 20260507012724 | 9 | 167 | 0.0 | 1.6 | 0.00 | 0.00 | 0.00 | 82 | 1009.1 |
| 20260507011803 | 9 | 153 | 0.0 | 3.2 | 0.00 | 0.00 | 0.00 | 82 | 1009.0 |
| 20260507010903 | 8 | 162 | 0.0 | 1.6 | 0.00 | 0.00 | 0.00 | 83 | 1009.1 |
| 20260507010003 | 8 | 170 | 0.0 | 1.6 | 0.00 | 0.00 | 0.00 | 85 | 1009.1 |
| 20260507005403 | 8 | 168 | 0.0 | 1.6 | 0.00 | 0.00 | 0.00 | 86 | 1009.1 |
| 20260507004503 | 8 | 0 | 0.0 | 0.0 | 0.00 | 0.00 | 0.00 | 86 | 1009.1 |
| 20260507003603 | 8 | 154 | 0.0 | 1.6 | 0.00 | 0.00 | 0.00 | 86 | 1009.2 |
| 20260507002724 | 8 | 185 | 0.0 | 1.6 | 0.00 | 0.00 | 0.00 | 86 | 1009.2 |
| 20260507001803 | 8 | 110 | 0.0 | 1.6 | 0.00 | 0.00 | 0.00 | 86 | 1009.1 |